Flag for Germany Weather past 2 weeks in Lippstadt, North Rhine-Westphalia, Germany

Now
73 °F

Clear.


Feels Like: 74 °F
Forecast: 60 / 74 °F
Wind: 1 mph from North

Location: Paderborn / Lippstadt

Current Time: Jul 5, 2015 at 2:52:52 AM

Latest Report: Jul 5, 2015 at 2:20 AM


Visibility: 10 mi

Pressure: 30.12 "Hg

Humidity: 78%

Dew point: 66 °F

Location of LippstadtLocation

Historic Weather in Lippstadt — Graph

°F

Lippstadt temperature yesterday

Maximum temperature yesterday: 97 °F (at 1:50 PM)
Minimum temperature yesterday: 66 °F (at 2:20 AM)
Average temperature yesterday: 83 °F

Past Weeks' High & Low Weather Summary

 TemperatureHumidityPressure
High97 °F (Jul 4, 1:50 PM)100% (Jun 20, 7:50 AM)30.27 "Hg (Jun 20, 7:50 AM)
Low46 °F (Jun 20, 1:50 AM)23% (Jul 4, 2:50 PM)29.68 "Hg (Jun 22, 8:20 PM)
Average64 °F64%30.08 "Hg
* Reported Jun 20 1:20 AM — Jul 5 1:20 AM, Lippstadt, Weather by CustomWeather, © 2015

Note: Actual official high and low records may vary slightly from our data, if they occured in-between our weather recording intervals... More about our weather records

Advertising

Lippstadt weather history for previous 24 hours

 ConditionsComfort  
Time TempWeatherWind HumidityBarometerVisibility
1:20 AM
Sun, Jul 5
75 °FClear.3 mph69%30.12 "Hg10 mi
12:50 AM77 °FPassing clouds.3 mph69%30.12 "HgN/A
12:20 AM75 °FClear.2 mph69%30.12 "Hg10 mi
11:50 PM
Sat, Jul 4
77 °FClear.2 mph65%30.09 "Hg10 mi
11:20 PM81 °FClear.2 mph58%30.09 "Hg10 mi
10:50 PM79 °FClear.2 mph61%30.09 "Hg10 mi
10:20 PM79 °FSunny.3 mph61%30.09 "Hg10 mi
9:50 PM82 °FPassing clouds.3 mph55%30.09 "HgN/A
9:20 PM84 °FPassing clouds.5 mph51%30.09 "HgN/A
8:50 PM86 °FPassing clouds.6 mph46%30.09 "HgN/A
8:20 PM90 °FPassing clouds.6 mph38%30.09 "HgN/A
7:50 PM91 °FPassing clouds.7 mph34%30.09 "HgN/A
7:20 PM91 °FPassing clouds.7 mph34%30.09 "HgN/A
6:50 PM93 °FPassing clouds.8 mph32%30.07 "HgN/A
6:20 PM93 °FPassing clouds.12 mph30%30.07 "HgN/A
5:50 PM93 °FPassing clouds.10 mph30%30.07 "HgN/A
5:20 PM93 °FSunny.12 mph28%30.07 "Hg10 mi
4:50 PM93 °FPassing clouds.8 mph30%30.07 "HgN/A
4:20 PM95 °FPassing clouds.9 mph30%30.07 "HgN/A
3:50 PM95 °FPassing clouds.10 mph30%30.07 "HgN/A
3:20 PM95 °FPassing clouds.9 mph26%30.07 "HgN/A
2:50 PM97 °FSunny.12 mph23%30.07 "Hg10 mi
2:20 PM97 °FSunny.9 mph25%30.07 "Hg10 mi
1:50 PM97 °FSunny.9 mph25%30.07 "Hg10 mi
1:20 PM93 °FSunny.12 mph28%30.07 "Hg10 mi
12:50 PM93 °FSunny.14 mph28%30.07 "Hg10 mi
12:20 PM93 °FSunny.12 mph28%30.09 "Hg10 mi
11:50 AM93 °FSunny.12 mph28%30.09 "Hg10 mi
11:20 AM91 °FSunny.13 mph32%30.09 "Hg10 mi
10:50 AM91 °FSunny.12 mph36%30.09 "Hg10 mi
10:20 AM90 °FSunny.12 mph38%30.09 "Hg10 mi
9:50 AM88 °FSunny.9 mph43%30.09 "Hg10 mi
9:20 AM86 °FSunny.8 mph43%30.09 "Hg10 mi
8:50 AM82 °FSunny.7 mph51%30.12 "Hg10 mi
8:20 AM81 °FSunny.7 mph58%30.12 "Hg10 mi
7:50 AM79 °FSunny.7 mph58%30.12 "Hg10 mi
7:20 AM77 °FSunny.9 mph61%30.12 "Hg10 mi
6:50 AM75 °FSunny.9 mph65%30.12 "Hg10 mi
6:20 AM72 °FSunny.8 mph73%30.12 "Hg10 mi
5:50 AM70 °FClear.8 mph78%30.12 "Hg10 mi
5:20 AM73 °FClear.8 mph69%30.12 "Hg10 mi
4:50 AM72 °FClear.9 mph73%30.12 "Hg10 mi
4:20 AM73 °FClear.9 mph69%30.12 "Hg10 mi
3:50 AM72 °FClear.7 mph73%30.15 "Hg10 mi
3:20 AM68 °FClear.2 mph83%30.15 "Hg10 mi
2:50 AM66 °FClear.1 mph88%30.18 "Hg10 mi
2:20 AM66 °FPassing clouds.3 mph88%30.18 "HgN/A
Weather by CustomWeather, © 2015

See weather overviewHow to use our weather pages